Voltar ao catálogo

NOAA 13

AtivoMeteoSSO
NORAD 22739·PAYLOAD·🇺🇸 United States

Lançado Aug 9, 1993 de Vandenberg Space Force Base

Loading…

Próximas Passagens (próximas 24 horas)

TLE

AtualizadoSource: Space-Track

Época: Sep 14, 2026, 13:20 UTC

1 22739U 93050A   26257.55606268  .00000054  00000-0  51238-4 0  9992
2 22739  98.7093 200.2571 0008482 231.7930 128.2480 14.13680600706002

Acompanhe NOAA 13 em tempo real com AllMySat

Download on the App Store